Location: Agadir-Ikarkaouin
(31.1503°N, 9.0246°W)
Time: 03:35:24
(UTC+00:00)

Cosmos 1867 - Pass Details

Date: 18 September 2020
Orbit: 777 x 799 km, 65.0° (Epoch: 23 October)

Event Time Altitude Azimuth Distance (km) Brightness Sun altitude
Rises 20:11:24 0° 340° (NNW) 3,306 7.3 -20.7°
Reaches altitude 10° 20:13:57 10° 347° (NNW) 2,372 6.4 -21.2°
Maximum altitude 20:19:08 42° 58° (ENE) 1,117 4.0 -22.3°
Enters shadow 20:19:19 42° 64° (ENE) 1,119 4.0 -22.3°
